Tracking 19832 objects as of 26-Aug-2019
HD Live streaming from Space Station
objects crossing your sky now

SL-8 DEB

Track SL-8 DEB now!
10-day predictions


NORAD ID: 21724
Int'l Code: 1991-009BZ
Perigee: 1,433.6 km
Apogee: 1,762.4 km
Inclination: 74.0 °
Period: 118.0 minutes
Semi major axis: 7969 km
RCS: 0.1023 m2 (medium)
Launch date: February 12, 1991
Source: Commonwealth of Independent States (former USSR) (CIS)
Launch site: PLESETSK MISSILE AND SPACE COMPLEX (PKMTR)

Note: This is SATELLITE DEBRIS
aabbcc
Your satellite tracking list
Your tracking list is empty




NASA's NSSDC Master Catalog

Two Line Element Set (TLE):
1 21724U 91009BZ  19237.81731153 +.00000108 +00000-0 +11129-2 0  9991
2 21724 073.9820 013.4715 0206301 266.9636 247.7856 12.20375624243143
Source of the keplerian elements: AFSPC